[[{"header":{"parameterUnit":"m.s-1","parameterCategory":1,"la1":30.2991,"la2":30.254,"lo1":-89.0895,"lo2":-89.0444,"dy":0.0017,"dx":0.0017,"nx":28,"ny":28,"refTime":"2025-11-18T03:00:00:Z","depth":0,"parameterNumber":2,"parameterNumberName":"U-component_of_WINDS"},"data":[0,0,0,0,0,0,0,0,0,0,0,0,0,0,0,0,0,0,0,0,0,0,0,0,0,0,0,0,0,0,0,0,0,0,0,0,0,0,0,0,0,0,0,0,0,0,0,0,0,0,0,0,0,0,0,0,0,0,-2.719,-2.719,0,-2.7235,-2.7236,-2.7236,-2.72,-2.7198,-2.7197,-2.7195,-2.7243,-2.7246,-2.7249,0,0,0,0,0,0,0,0,0,0,0,0,0,-2.7073,-2.7076,-2.719,-2.719,-2.7191,-2.7235,-2.7236,-2.7236,-2.72,-2.7198,-2.7196,-2.7195,-2.7242,-2.7245,-2.7249,0,0,0,0,0,0,0,0,0,0,0,0,0,-2.7122,-2.7077,-2.719,-2.7178,-2.7178,-2.7235,-2.7236,-2.7237,-2.7201,-2.7198,-2.7196,-2.7194,-2.7241,-2.7245,-2.7249,-2.7321,0,0,-2.7262,-2.7263,0,0,0,0,0,0,0,0,-2.7119,-2.7126,-2.7179,-2.7179,-2.7179,-2.7209,-2.7212,-2.7265,-2.7201,-2.7192,-2.7195,-2.7193,-2.7234,-2.7238,-2.7252,-2.7323,-2.7325,-2.7262,-2.7265,-2.7266,-2.7267,0,0,0,0,0,0,0,-2.7116,-2.7124,-2.7208,-2.718,-2.718,-2.7171,-2.7176,-2.7222,-2.7225,-2.7192,-2.719,-2.7196,-2.7233,-2.7248,-2.7253,-2.7326,-2.7262,-2.7266,-2.7268,-2.727,-2.7459,-2.7462,0,0,0,0,0,0,-2.7114,-2.7122,-2.7206,-2.7209,-2.7143,-2.7175,-2.718,-2.7202,-2.7225,-2.7226,-2.7198,-2.7194,-2.7242,-2.7248,-2.7255,-2.734,-2.7266,-2.727,-2.7272,-2.7457,-2.746,-2.7463,0,0,0,0,0,0,-2.7111,-2.7122,-2.7205,-2.7165,-2.7175,-2.718,-2.7205,-2.7204,-2.7219,-2.7229,-2.7229,-2.7212,-2.7241,-2.7249,-2.7305,-2.7341,-2.7272,-2.7276,-2.7454,-2.7458,-2.7461,-2.7512,0,0,0,0,0,0,-2.7108,-2.7121,-2.7148,-2.7166,-2.7177,-2.7254,-2.7207,-2.7207,-2.7226,-2.7221,-2.7243,-2.7244,-2.724,-2.7299,-2.7309,-2.7346,-2.7279,-2.745,-2.7455,-2.746,-2.7507,-2.7517,-2.7526,0,0,0,0,0,-2.7104,-2.716,-2.7149,-2.716,-2.721,-2.7256,-2.7262,-2.7256,-2.7229,-2.7256,-2.7263,-2.7243,-2.7336,-2.7305,-2.7316,-2.7354,-2.7448,-2.7454,-2.746,-2.7503,-2.7515,-2.7526,0,0,0,0,0,0,-2.7146,-2.7162,-2.715,-2.7214,-2.7234,-2.7249,-2.7283,-2.7269,-2.7297,-2.7292,-2.7283,-2.7288,-2.7347,-2.7357,-2.7322,-2.7426,-2.7388,-2.7396,-2.7417,-2.7429,-2.7438,-2.7434,-2.7282,0,0,0,0,0,-2.7163,-2.7198,-2.721,-2.7265,-2.7276,-2.7278,-2.7298,-2.7291,-2.7312,-2.732,-2.733,-2.7351,-2.7385,-2.7408,-2.7439,-2.7509,-2.7513,-2.7541,-2.755,-2.7558,-2.7565,-2.7603,-2.7615,-2.7482,-2.7482,-2.7481,0,0,-2.7198,-2.7211,-2.7234,-2.7274,-2.7289,-2.7326,-2.7285,-2.7326,-2.7353,-2.7326,-2.7379,-2.7388,-2.7411,-2.7474,-2.7503,-2.7484,-2.7603,-2.7565,-2.7571,-2.7574,-2.761,-2.7623,-2.7634,-2.7486,-2.7485,-2.7484,0,0,-2.728,-2.7294,-2.7341,-2.7357,-2.7379,-2.7381,-2.7392,-2.7411,-2.7415,-2.7469,-2.7449,-2.7482,-2.7541,-2.7558,-2.7574,-2.7665,-2.7648,-2.7676,-2.7724,-2.7761,-2.7772,-2.7781,-2.7813,-2.7825,-2.7683,-2.7683,-2.7683,0,-2.7321,-2.7375,-2.7367,-2.741,-2.7428,-2.7406,-2.7454,-2.747,-2.7502,-2.7515,-2.7494,-2.7568,-2.7581,-2.7648,-2.7671,-2.7685,-2.7698,-2.7673,-2.7771,-2.778,-2.7789,-2.7819,-2.7831,-2.7686,-2.7686,-2.7686,-2.7685,0,-2.7424,-2.7462,-2.7497,-2.7529,-2.7552,-2.7597,-2.7597,-2.7621,-2.7613,-2.7617,-2.7672,-2.7689,-2.7723,-2.7739,-2.7732,-2.7806,-2.7793,-2.7772,-2.7733,-2.7805,-2.7833,-2.7845,-2.7691,-2.769,-2.7689,-2.7688,0,0,-2.7532,-2.756,-2.7573,-2.7587,-2.7611,-2.7641,-2.7686,-2.7719,-2.774,-2.7764,-2.7801,-2.7852,-2.7833,-2.7851,-2.7846,-2.7879,-2.795,-2.7853,-2.7854,-2.787,-2.8032,-2.8048,-2.8061,-2.7939,-2.7942,-2.7943,-2.803,0,-2.7615,-2.7692,-2.7687,-2.776,-2.7795,-2.7775,-2.7814,-2.7833,-2.7839,-2.787,-2.7876,-2.7912,-2.7884,-2.7895,-2.7927,-2.7934,-2.7982,-2.7928,-2.7974,-2.7976,-2.7968,-2.8076,-2.8092,-2.8173,-2.8041,-2.8043,-2.8045,0,-2.7721,-2.7748,-2.7824,-2.7844,-2.7859,-2.7894,-2.7925,-2.7955,-2.7977,-2.7979,-2.8001,-2.799,-2.8036,-2.7998,-2.8062,-2.8025,-2.8044,-2.8051,-2.8054,-2.8057,-2.8014,-2.8082,-2.8199,-2.8211,-2.8062,-2.8061,-2.806,0,-2.7792,-2.7848,-2.79,-2.7913,-2.7938,-2.7963,-2.7974,-2.7994,-2.8015,-2.8043,-2.8056,-2.809,-2.8107,-2.8134,-2.8133,-2.8105,-2.8198,-2.8159,-2.8201,-2.8201,-2.822,-2.8218,-2.8341,-2.8234,-2.8234,-2.8233,-2.8233,0,-2.7884,-2.7932,-2.7933,-2.7965,-2.8018,-2.8013,-2.8065,-2.8074,-2.8092,-2.8126,-2.8112,-2.8144,-2.8142,-2.8175,-2.8176,-2.8228,-2.8237,-2.824,-2.8239,-2.8241,-2.824,-2.8252,-2.8246,-2.8237,-2.8236,-2.8235,-2.8235,0,-2.7972,-2.7974,-2.803,-2.8049,-2.8055,-2.8093,-2.8109,-2.8141,-2.8145,-2.8189,-2.8199,-2.8207,-2.8245,-2.8248,-2.8292,-2.8293,-2.8357,-2.835,-2.8349,-2.8347,-2.8388,-2.8384,-2.8522,-2.854,-2.8422,-2.8423,-2.8424,0,-2.803,-2.8066,-2.8089,-2.811,-2.8123,-2.8158,-2.818,-2.8177,-2.82,-2.8229,-2.8257,-2.8294,-2.8323,-2.8386,-2.8396,-2.8431,-2.8425,-2.8471,-2.843,-2.843,-2.8425,-2.8422,-2.8426,-2.8478,-2.8479,-2.8481,-2.8481,0,-2.8133,-2.8132,-2.8163,-2.8196,-2.8222,-2.8247,-2.827,-2.8289,-2.8289,-2.8316,-2.8355,-2.8378,-2.8424,-2.8462,-2.8496,-2.8508,-2.8495,-2.8495,-2.8506,-2.8507,-2.8505,-2.8506,-2.837,-2.8491,-2.849,-2.8489,-2.8489,-2.8488,-2.8207,-2.8238,-2.8259,-2.8294,-2.8312,-2.8334,-2.8364,-2.8373,-2.8406,-2.8442,-2.8439,-2.8483,-2.8506,-2.855,-2.8565,-2.86,-2.8584,-2.8601,-2.8605,-2.8609,-2.8613,-2.85,-2.8606,-2.8606,-2.8606,-2.8606,-2.8605,0,-2.8308,-2.8321,-2.8354,-2.8387,-2.8415,-2.8401,-2.8426,-2.8451,-2.8489,-2.8512,-2.8541,-2.8587,-2.8623,-2.8637,-2.8673,-2.8698,-2.8693,-2.8707,-2.8705,-2.8708,-2.8625,-2.8611,-2.8711,-2.8711,-2.8711,-2.8711,-2.8711,-2.8711,-2.8364,-2.8415,-2.8418,-2.8479,-2.8492,-2.8534,-2.855,-2.8571,-2.8589,-2.864,-2.867,-2.8679,-2.8698,-2.8735,-2.8769,-2.8772,-2.8785,-2.8802,-2.8803,-2.8725,-2.8714,-2.8704,-2.8691,-2.8805,-2.8806,-2.8883,-2.8884,-2.8884]},{"header":{"parameterUnit":"m.s-1","parameterCategory":1,"la1":30.2991,"la2":30.254,"lo1":-89.0895,"lo2":-89.0444,"dy":0.0017,"dx":0.0017,"nx":28,"ny":28,"refTime":"2025-11-18T03:00:00:Z","depth":0,"parameterNumber":3,"parameterNumberName":"V-component_of_WINDS"},"data":[0,0,0,0,0,0,0,0,0,0,0,0,0,0,0,0,0,0,0,0,0,0,0,0,0,0,0,0,0,0,0,0,0,0,0,0,0,0,0,0,0,0,0,0,0,0,0,0,0,0,0,0,0,0,0,0,0,0,1.0797,1.0796,0,1.0748,1.0747,1.0747,1.0718,1.0718,1.0717,1.0717,1.0662,1.0661,1.0659,0,0,0,0,0,0,0,0,0,0,0,0,0,1.0861,1.086,1.0797,1.0796,1.0796,1.0748,1.0747,1.0747,1.0718,1.0718,1.0717,1.0717,1.0663,1.0661,1.0659,0,0,0,0,0,0,0,0,0,0,0,0,0,1.0825,1.086,1.0797,1.0776,1.0773,1.0748,1.0747,1.0746,1.0718,1.0718,1.0717,1.0717,1.0663,1.0661,1.0659,1.065,0,0,1.0653,1.0652,0,0,0,0,0,0,0,0,1.0827,1.0822,1.0779,1.0777,1.0774,1.0739,1.075,1.0714,1.0718,1.0739,1.0717,1.0717,1.0687,1.0683,1.0674,1.0647,1.0645,1.0653,1.0651,1.0651,1.065,0,0,0,0,0,0,0,1.0829,1.0824,1.0777,1.0779,1.0776,1.0767,1.0762,1.0743,1.0714,1.0737,1.0735,1.0729,1.0686,1.0676,1.0673,1.0644,1.0653,1.0651,1.065,1.0649,1.0608,1.0609,0,0,0,0,0,0,1.0836,1.0827,1.0779,1.0776,1.0801,1.0766,1.076,1.075,1.0715,1.0709,1.073,1.0728,1.068,1.0675,1.0671,1.0659,1.0651,1.0649,1.0647,1.0608,1.0608,1.0609,0,0,0,0,0,0,1.0837,1.0832,1.0781,1.0801,1.0794,1.0765,1.0754,1.0749,1.074,1.0709,1.0704,1.0725,1.068,1.0674,1.0656,1.0656,1.0648,1.0646,1.0608,1.0608,1.0609,1.0634,0,0,0,0,0,0,1.0839,1.0833,1.083,1.0801,1.0793,1.0768,1.0754,1.0749,1.0737,1.0735,1.0704,1.0698,1.0679,1.0659,1.0654,1.0653,1.0644,1.0608,1.0608,1.0608,1.0633,1.0635,1.0637,0,0,0,0,0,1.0842,1.0837,1.083,1.0824,1.0789,1.0768,1.0763,1.0743,1.0737,1.0734,1.0714,1.0699,1.0657,1.0658,1.0652,1.065,1.0608,1.0608,1.0608,1.0632,1.0635,1.0637,0,0,0,0,0,0,1.0865,1.0833,1.0824,1.0811,1.0793,1.0763,1.0758,1.0746,1.0727,1.0726,1.0699,1.0693,1.0678,1.0662,1.0663,1.064,1.0631,1.063,1.0651,1.0653,1.0655,1.0659,1.0643,0,0,0,0,0,1.0869,1.0856,1.0829,1.0819,1.0811,1.0786,1.0776,1.0762,1.0742,1.0733,1.0712,1.0692,1.0674,1.0663,1.0644,1.0631,1.0624,1.0627,1.0629,1.0631,1.063,1.0622,1.0624,1.061,1.061,1.061,0,0,1.0876,1.0857,1.085,1.0823,1.0808,1.0794,1.078,1.0766,1.0755,1.0731,1.0713,1.0698,1.0673,1.0658,1.065,1.0644,1.0632,1.0631,1.0633,1.0631,1.0623,1.0624,1.0625,1.061,1.061,1.061,0,0,1.0882,1.0866,1.0857,1.0843,1.082,1.0804,1.0802,1.0775,1.0764,1.0747,1.0729,1.0715,1.0685,1.0669,1.0656,1.0658,1.0644,1.0653,1.0663,1.0656,1.0657,1.0658,1.0659,1.0659,1.0653,1.0653,1.0653,0,1.0893,1.0873,1.0854,1.0842,1.0831,1.081,1.0801,1.0787,1.0758,1.0751,1.0745,1.0708,1.069,1.0671,1.0672,1.0662,1.0659,1.0656,1.0659,1.0659,1.066,1.066,1.0661,1.0654,1.0654,1.0654,1.0653,0,1.0888,1.0875,1.087,1.0847,1.0835,1.0824,1.0802,1.0792,1.078,1.0764,1.0747,1.0725,1.0702,1.0697,1.0683,1.0676,1.0674,1.0664,1.0654,1.0663,1.0663,1.0663,1.0656,1.0655,1.0655,1.0655,0,0,1.0906,1.0873,1.0872,1.0861,1.0836,1.0824,1.0813,1.0793,1.0785,1.0767,1.0756,1.0732,1.0724,1.071,1.0694,1.0688,1.0692,1.0679,1.0678,1.0682,1.0683,1.0691,1.0692,1.0683,1.0683,1.0683,1.0686,0,1.0908,1.0888,1.0871,1.0857,1.0845,1.0826,1.0816,1.0798,1.0784,1.077,1.0753,1.0737,1.0727,1.0719,1.0712,1.0693,1.0692,1.0693,1.0672,1.0671,1.0679,1.0692,1.0699,1.0703,1.0686,1.0686,1.0686,0,1.0908,1.0893,1.0878,1.0856,1.085,1.0841,1.0822,1.081,1.079,1.078,1.0766,1.0751,1.0737,1.0729,1.0709,1.071,1.0701,1.069,1.069,1.0687,1.0679,1.0689,1.0703,1.0704,1.0685,1.0685,1.0685,0,1.0923,1.0899,1.0887,1.0879,1.0852,1.0846,1.0834,1.0815,1.0804,1.0787,1.078,1.0761,1.0751,1.0736,1.0716,1.0712,1.0699,1.0689,1.0689,1.069,1.0687,1.0687,1.07,1.0681,1.0681,1.0681,1.0681,0,1.0928,1.0919,1.0894,1.0887,1.0877,1.0857,1.0848,1.0834,1.0817,1.0806,1.0788,1.0778,1.0752,1.0739,1.0723,1.0709,1.0704,1.0695,1.0691,1.0697,1.0698,1.069,1.0689,1.0681,1.0681,1.0681,1.0681,0,1.0942,1.0925,1.0911,1.0888,1.0882,1.0876,1.0855,1.0847,1.0832,1.0819,1.0814,1.0791,1.0774,1.0753,1.0729,1.0718,1.0707,1.07,1.0714,1.0712,1.0713,1.0714,1.0721,1.0721,1.0703,1.0703,1.0703,0,1.0946,1.094,1.0916,1.0909,1.0898,1.0886,1.0876,1.0857,1.0847,1.0825,1.082,1.0803,1.0788,1.0762,1.0742,1.0724,1.0717,1.0721,1.0713,1.072,1.0717,1.0718,1.0717,1.0722,1.0722,1.0723,1.0723,0,1.0955,1.0947,1.0935,1.092,1.0909,1.0896,1.0881,1.0876,1.0853,1.0843,1.0827,1.0816,1.0793,1.0776,1.0756,1.0742,1.0729,1.0726,1.0725,1.073,1.0739,1.0735,1.0719,1.0725,1.0725,1.0725,1.0725,1.0724,1.0964,1.0958,1.0941,1.0928,1.0916,1.0904,1.0896,1.0881,1.0868,1.0849,1.0838,1.0823,1.0804,1.0776,1.0763,1.075,1.0745,1.0744,1.0743,1.0743,1.0745,1.0742,1.0746,1.0746,1.0746,1.0746,1.0746,0,1.0972,1.0961,1.095,1.0931,1.0921,1.0912,1.0896,1.0887,1.0875,1.0859,1.0846,1.0828,1.0812,1.0792,1.0774,1.0768,1.0761,1.0764,1.0764,1.0761,1.0751,1.0754,1.077,1.077,1.077,1.077,1.077,1.077,1.0975,1.0965,1.0956,1.0939,1.0928,1.0914,1.0906,1.0894,1.0882,1.0864,1.0851,1.0839,1.0821,1.0803,1.0788,1.0782,1.0776,1.0781,1.0773,1.0764,1.0762,1.076,1.0762,1.078,1.078,1.0784,1.0784,1.0785]}]]